Time,TemperatureF,DewpointF,PressureIn,WindDirection,WindDirectionDegrees,WindSpeedMPH,WindSpeedGustMPH,Humidity,HourlyPrecipIn,Conditions,Clouds,dailyrainin,SoftwareType,DateUTC
2013-02-25 00:02:00,16.0,10.0,-100.00,WSW,240,6.0,7.0,76,0.00,,,0.00,,2013-02-25 06:02:00,
2013-02-25 00:11:00,16.0,10.0,-100.00,SSW,205,6.0,7.0,76,0.00,,,0.00,,2013-02-25 06:11:00,
2013-02-25 00:21:00,15.0,9.0,-100.00,SSW,205,7.0,9.0,76,0.00,,,0.00,,2013-02-25 06:21:00,
2013-02-25 00:31:00,15.0,9.0,-100.00,SSW,210,6.0,7.0,76,0.00,,,0.00,,2013-02-25 06:31:00,
2013-02-25 00:41:00,16.0,10.0,-100.00,SW,220,7.0,11.0,76,0.00,,,0.00,,2013-02-25 06:41:00,
2013-02-25 00:51:00,16.0,10.0,-100.00,SW,225,7.0,11.0,76,0.00,,,0.00,,2013-02-25 06:51:00,
2013-02-25 01:01:00,15.0,9.0,-100.00,SW,220,6.0,7.0,76,0.00,,,0.00,,2013-02-25 07:01:00,
2013-02-25 01:11:00,15.0,9.0,-100.00,SW,235,6.0,7.0,76,0.00,,,0.00,,2013-02-25 07:11:00,
2013-02-25 01:21:00,15.0,9.0,-100.00,SW,220,6.0,9.0,75,0.00,,,0.00,,2013-02-25 07:21:00,
2013-02-25 01:31:00,15.0,9.0,-100.00,SW,235,5.0,6.0,75,0.00,,,0.00,,2013-02-25 07:31:00,
2013-02-25 01:41:00,15.0,9.0,-100.00,WSW,245,3.0,4.0,75,0.00,,,0.00,,2013-02-25 07:41:00,
2013-02-25 01:51:00,15.0,9.0,-100.00,SW,235,4.0,6.0,75,0.00,,,0.00,,2013-02-25 07:51:00,
2013-02-25 02:01:00,15.0,9.0,-100.00,West,260,3.0,6.0,75,0.00,,,0.00,,2013-02-25 08:01:00,
2013-02-25 02:11:00,15.0,9.0,-100.00,West,275,4.0,4.0,75,0.00,,,0.00,,2013-02-25 08:11:00,
2013-02-25 02:21:00,15.0,9.0,-100.00,WSW,250,2.0,4.0,76,0.00,,,0.00,,2013-02-25 08:21:00,
2013-02-25 02:31:00,15.0,9.0,-100.00,WSW,240,4.0,4.0,76,0.00,,,0.00,,2013-02-25 08:31:00,
2013-02-25 02:41:00,15.0,9.0,-100.00,WSW,250,4.0,5.0,76,0.00,,,0.00,,2013-02-25 08:41:00,
2013-02-25 02:52:00,15.0,9.0,-100.00,West,260,4.0,5.0,76,0.00,,,0.00,,2013-02-25 08:52:00,
2013-02-25 03:01:00,15.0,9.0,-100.00,West,270,4.0,5.0,77,0.00,,,0.00,,2013-02-25 09:01:00,
2013-02-25 03:12:00,15.0,9.0,-100.00,West,280,5.0,6.0,78,0.00,,,0.00,,2013-02-25 09:12:00,
2013-02-25 03:21:00,14.0,9.0,-100.00,WNW,285,4.0,6.0,78,0.00,,,0.00,,2013-02-25 09:21:00,
2013-02-25 03:32:00,14.0,9.0,-100.00,West,275,4.0,6.0,80,0.00,,,0.00,,2013-02-25 09:32:00,
2013-02-25 03:41:00,14.0,9.0,-100.00,WSW,255,3.0,4.0,80,0.00,,,0.00,,2013-02-25 09:41:00,
2013-02-25 03:51:00,14.0,9.0,-100.00,West,275,3.0,4.0,81,0.00,,,0.00,,2013-02-25 09:51:00,
2013-02-25 04:01:00,13.0,9.0,-100.00,WSW,245,2.0,3.0,81,0.00,,,0.00,,2013-02-25 10:01:00,
2013-02-25 04:11:00,13.0,9.0,-100.00,SW,235,3.0,4.0,81,0.00,,,0.00,,2013-02-25 10:11:00,
2013-02-25 04:21:00,13.0,9.0,-100.00,WSW,240,2.0,7.0,82,0.00,,,0.00,,2013-02-25 10:21:00,
2013-02-25 04:32:00,12.0,9.0,-100.00,SW,220,3.0,3.0,83,0.00,,,0.00,,2013-02-25 10:32:00,
2013-02-25 04:41:00,12.0,9.0,-100.00,SSW,210,3.0,4.0,84,0.00,,,0.00,,2013-02-25 10:41:00,
2013-02-25 04:52:00,12.0,9.0,-100.00,WSW,255,1.0,4.0,85,0.00,,,0.00,,2013-02-25 10:52:00,
2013-02-25 05:01:00,12.0,9.0,-100.00,SSW,205,2.0,2.0,85,0.00,,,0.00,,2013-02-25 11:01:00,
2013-02-25 05:11:00,11.0,9.0,-100.00,SSW,205,4.0,4.0,85,0.00,,,0.00,,2013-02-25 11:11:00,
2013-02-25 05:21:00,11.0,7.0,-100.00,SW,230,4.0,4.0,86,0.00,,,0.00,,2013-02-25 11:21:00,
2013-02-25 05:32:00,11.0,7.0,-100.00,SW,235,4.0,4.0,86,0.00,,,0.00,,2013-02-25 11:32:00,
2013-02-25 05:42:00,11.0,9.0,-100.00,WSW,250,4.0,6.0,87,0.00,,,0.00,,2013-02-25 11:42:00,
2013-02-25 05:52:00,12.0,9.0,-100.00,SW,220,3.0,4.0,87,0.00,,,0.00,,2013-02-25 11:52:00,
2013-02-25 06:02:00,12.0,9.0,-100.00,SSW,210,4.0,5.0,88,0.00,,,0.00,,2013-02-25 12:02:00,
2013-02-25 06:11:00,12.0,9.0,-100.00,SSW,210,5.0,6.0,88,0.00,,,0.00,,2013-02-25 12:11:00,
2013-02-25 06:21:00,12.0,9.0,-100.00,SSW,195,4.0,6.0,88,0.00,,,0.00,,2013-02-25 12:21:00,
2013-02-25 06:32:00,12.0,9.0,-100.00,South,180,4.0,4.0,88,0.00,,,0.00,,2013-02-25 12:32:00,
2013-02-25 06:42:00,12.0,9.0,-100.00,SSE,160,6.0,6.0,89,0.00,,,0.00,,2013-02-25 12:42:00,
2013-02-25 06:53:00,12.0,9.0,-100.00,South,180,3.0,5.0,89,0.00,,,0.00,,2013-02-25 12:53:00,
2013-02-25 07:02:00,12.0,9.0,-100.00,South,185,2.0,4.0,89,0.00,,,0.00,,2013-02-25 13:02:00,
2013-02-25 07:12:00,12.0,9.0,-100.00,SSW,200,3.0,3.0,89,0.00,,,0.00,,2013-02-25 13:12:00,
2013-02-25 07:22:00,12.0,10.0,-100.00,SSW,200,2.0,3.0,89,0.00,,,0.00,,2013-02-25 13:22:00,
2013-02-25 07:32:00,12.0,10.0,-100.00,South,180,2.0,4.0,89,0.00,,,0.00,,2013-02-25 13:32:00,
2013-02-25 07:42:00,12.0,10.0,-100.00,South,170,3.0,4.0,89,0.00,,,0.00,,2013-02-25 13:42:00,
2013-02-25 07:52:00,12.0,10.0,-100.00,South,185,2.0,4.0,89,0.00,,,0.00,,2013-02-25 13:52:00,
2013-02-25 08:03:00,13.0,10.0,-100.00,South,190,1.0,2.0,89,0.00,,,0.00,,2013-02-25 14:03:00,
2013-02-25 08:17:00,13.0,10.0,-100.00,SSE,165,2.0,2.0,90,0.00,,,0.00,,2013-02-25 14:17:00,
2013-02-25 08:22:00,13.0,10.0,-100.00,South,180,1.0,1.0,90,0.00,,,0.00,,2013-02-25 14:22:00,
2013-02-25 08:32:00,14.0,12.0,-100.00,ESE,105,1.0,2.0,90,0.00,,,0.00,,2013-02-25 14:32:00,
2013-02-25 08:42:00,14.0,12.0,-100.00,South,180,1.0,2.0,90,0.00,,,0.00,,2013-02-25 14:42:00,
2013-02-25 08:52:00,15.0,12.0,-100.00,SSE,155,0.0,1.0,90,0.00,,,0.00,,2013-02-25 14:52:00,
2013-02-25 09:02:00,15.0,12.0,-100.00,South,170,1.0,2.0,90,0.00,,,0.00,,2013-02-25 15:02:00,
2013-02-25 09:11:00,15.0,12.0,-100.00,South,180,1.0,2.0,90,0.00,,,0.00,,2013-02-25 15:11:00,
2013-02-25 09:21:00,16.0,14.0,-100.00,South,180,2.0,2.0,90,0.00,,,0.00,,2013-02-25 15:21:00,
2013-02-25 09:32:00,17.0,14.0,-100.00,West,270,1.0,3.0,90,0.00,,,0.00,,2013-02-25 15:32:00,
2013-02-25 09:41:00,17.0,16.0,-100.00,NW,305,1.0,2.0,90,0.00,,,0.00,,2013-02-25 15:41:00,
2013-02-25 09:51:00,18.0,16.0,-100.00,West,280,1.0,2.0,90,0.00,,,0.00,,2013-02-25 15:51:00,
2013-02-25 10:02:00,18.0,16.0,-100.00,SSW,200,1.0,2.0,90,0.00,,,0.00,,2013-02-25 16:02:00,
2013-02-25 10:11:00,19.0,18.0,-100.00,NNE,15,1.0,2.0,90,0.00,,,0.00,,2013-02-25 16:11:00,
2013-02-25 10:21:00,20.0,18.0,-100.00,NNW,340,1.0,2.0,91,0.00,,,0.00,,2013-02-25 16:21:00,
2013-02-25 10:32:00,20.0,18.0,-100.00,West,270,1.0,3.0,91,0.00,,,0.00,,2013-02-25 16:32:00,
2013-02-25 10:42:00,20.0,18.0,-100.00,West,275,1.0,3.0,91,0.00,,,0.00,,2013-02-25 16:42:00,
2013-02-25 10:51:00,20.0,18.0,-100.00,SW,225,2.0,3.0,91,0.00,,,0.00,,2013-02-25 16:51:00,
2013-02-25 11:01:00,21.0,19.0,-100.00,South,190,2.0,3.0,91,0.00,,,0.00,,2013-02-25 17:01:00,
2013-02-25 11:11:00,22.0,19.0,-100.00,South,190,2.0,4.0,91,0.00,,,0.00,,2013-02-25 17:11:00,
2013-02-25 11:21:00,22.0,19.0,-100.00,SSW,195,1.0,4.0,91,0.00,,,0.00,,2013-02-25 17:21:00,
2013-02-25 11:31:00,23.0,21.0,-100.00,WNW,290,3.0,4.0,91,0.00,,,0.00,,2013-02-25 17:31:00,
2013-02-25 11:41:00,23.0,21.0,-100.00,WNW,290,3.0,4.0,91,0.00,,,0.00,,2013-02-25 17:41:00,
2013-02-25 11:52:00,23.0,21.0,-100.00,WNW,290,3.0,4.0,91,0.00,,,0.00,,2013-02-25 17:52:00,
2013-02-25 12:01:00,23.0,21.0,-100.00,WNW,290,3.0,4.0,91,0.00,,,0.00,,2013-02-25 18:01:00,
2013-02-25 12:12:00,23.0,21.0,-100.00,WNW,290,3.0,4.0,91,0.00,,,0.00,,2013-02-25 18:12:00,
2013-02-25 13:22:00,27.0,23.0,-100.00,SSW,210,4.0,6.0,85,0.00,,,0.00,,2013-02-25 19:22:00,
2013-02-25 13:32:00,26.0,21.0,-100.00,SSW,205,6.0,7.0,84,0.00,,,0.00,,2013-02-25 19:32:00,
2013-02-25 13:42:00,26.0,23.0,-100.00,SW,215,5.0,7.0,83,0.00,,,0.00,,2013-02-25 19:42:00,
2013-02-25 13:52:00,27.0,23.0,-100.00,WSW,240,4.0,7.0,82,0.00,,,0.00,,2013-02-25 19:52:00,
2013-02-25 14:01:00,27.0,21.0,-100.00,West,270,3.0,7.0,81,0.00,,,0.00,,2013-02-25 20:01:00,
2013-02-25 14:11:00,27.0,21.0,-100.00,WSW,245,2.0,6.0,80,0.00,,,0.00,,2013-02-25 20:11:00,
2013-02-25 14:21:00,28.0,23.0,-100.00,NNW,340,1.0,4.0,78,0.00,,,0.00,,2013-02-25 20:21:00,
2013-02-25 14:31:00,29.0,21.0,-100.00,SE,140,1.0,4.0,75,0.00,,,0.00,,2013-02-25 20:31:00,
2013-02-25 14:41:00,28.0,21.0,-100.00,SSE,155,4.0,6.0,74,0.00,,,0.00,,2013-02-25 20:41:00,
2013-02-25 14:52:00,28.0,21.0,-100.00,SSE,165,5.0,6.0,74,0.00,,,0.00,,2013-02-25 20:52:00,
2013-02-25 15:01:00,27.0,21.0,-100.00,South,170,4.0,6.0,75,0.00,,,0.00,,2013-02-25 21:01:00,
2013-02-25 15:11:00,28.0,21.0,-100.00,South,175,2.0,6.0,75,0.00,,,0.00,,2013-02-25 21:11:00,
2013-02-25 15:21:00,28.0,21.0,-100.00,South,180,2.0,6.0,75,0.00,,,0.00,,2013-02-25 21:21:00,
2013-02-25 15:31:00,28.0,21.0,-100.00,SSE,165,4.0,5.0,75,0.00,,,0.00,,2013-02-25 21:31:00,
2013-02-25 15:42:00,28.0,21.0,-100.00,SSE,165,1.0,4.0,75,0.00,,,0.00,,2013-02-25 21:42:00,
2013-02-25 15:51:00,28.0,21.0,-100.00,ENE,70,0.0,3.0,75,0.00,,,0.00,,2013-02-25 21:51:00,
2013-02-25 16:01:00,28.0,21.0,-100.00,SSE,150,1.0,4.0,75,0.00,,,0.00,,2013-02-25 22:01:00,
2013-02-25 16:11:00,27.0,21.0,-100.00,SE,135,3.0,6.0,77,0.00,,,0.00,,2013-02-25 22:11:00,
2013-02-25 16:21:00,27.0,21.0,-100.00,SSE,155,1.0,4.0,77,0.00,,,0.00,,2013-02-25 22:21:00,
2013-02-25 16:32:00,27.0,21.0,-100.00,WSW,245,1.0,5.0,77,0.00,,,0.00,,2013-02-25 22:32:00,
2013-02-25 16:42:00,27.0,21.0,-100.00,SSE,160,2.0,4.0,78,0.00,,,0.00,,2013-02-25 22:42:00,
2013-02-25 16:51:00,26.0,21.0,-100.00,SSE,155,4.0,5.0,78,0.00,,,0.00,,2013-02-25 22:51:00,
2013-02-25 17:01:00,26.0,21.0,-100.00,SSE,160,3.0,6.0,79,0.00,,,0.00,,2013-02-25 23:01:00,
2013-02-25 17:11:00,26.0,21.0,-100.00,SSE,165,4.0,6.0,80,0.00,,,0.00,,2013-02-25 23:11:00,
2013-02-25 17:22:00,25.0,21.0,-100.00,SSE,165,5.0,7.0,82,0.00,,,0.00,,2013-02-25 23:22:00,
2013-02-25 17:31:00,25.0,21.0,-100.00,South,185,4.0,7.0,83,0.00,,,0.00,,2013-02-25 23:31:00,
2013-02-25 17:41:00,24.0,19.0,-100.00,South,175,6.0,7.0,84,0.00,,,0.00,,2013-02-25 23:41:00,
2013-02-25 17:52:00,24.0,19.0,-100.00,South,180,4.0,9.0,85,0.00,,,0.00,,2013-02-25 23:52:00,
2013-02-25 18:01:00,24.0,19.0,-100.00,SSW,205,5.0,7.0,86,0.00,,,0.00,,2013-02-26 00:01:00,
2013-02-25 18:11:00,23.0,19.0,-100.00,SE,140,4.0,5.0,87,0.00,,,0.00,,2013-02-26 00:11:00,
2013-02-25 18:21:00,23.0,19.0,-100.00,SSW,210,3.0,7.0,87,0.00,,,0.00,,2013-02-26 00:21:00,
2013-02-25 18:32:00,23.0,19.0,-100.00,SSW,200,3.0,4.0,88,0.00,,,0.00,,2013-02-26 00:32:00,
2013-02-25 18:41:00,23.0,19.0,-100.00,South,180,2.0,3.0,88,0.00,,,0.00,,2013-02-26 00:41:00,
2013-02-25 18:51:00,22.0,19.0,-100.00,East,95,2.0,4.0,89,0.00,,,0.00,,2013-02-26 00:51:00,
2013-02-25 19:02:00,22.0,19.0,-100.00,NE,40,1.0,3.0,90,0.00,,,0.00,,2013-02-26 01:02:00,
2013-02-25 19:11:00,22.0,19.0,-100.00,ENE,75,4.0,5.0,90,0.00,,,0.00,,2013-02-26 01:11:00,
2013-02-25 19:21:00,22.0,19.0,-100.00,East,90,2.0,5.0,91,0.00,,,0.00,,2013-02-26 01:21:00,
2013-02-25 19:31:00,22.0,19.0,-100.00,East,100,1.0,5.0,91,0.00,,,0.00,,2013-02-26 01:31:00,
2013-02-25 19:41:00,22.0,19.0,-100.00,SSW,200,1.0,2.0,92,0.00,,,0.00,,2013-02-26 01:41:00,
2013-02-25 19:51:00,21.0,19.0,-100.00,South,170,2.0,4.0,92,0.00,,,0.00,,2013-02-26 01:51:00,
2013-02-25 20:01:00,22.0,19.0,-100.00,SE,145,0.0,3.0,92,0.00,,,0.00,,2013-02-26 02:01:00,
2013-02-25 20:11:00,22.0,19.0,-100.00,South,175,2.0,4.0,92,0.00,,,0.00,,2013-02-26 02:11:00,
2013-02-25 20:21:00,21.0,19.0,-100.00,SE,130,2.0,7.0,92,0.00,,,0.00,,2013-02-26 02:21:00,
2013-02-25 20:32:00,21.0,19.0,-100.00,South,185,2.0,4.0,92,0.00,,,0.00,,2013-02-26 02:32:00,
2013-02-25 20:41:00,21.0,19.0,-100.00,South,180,3.0,4.0,92,0.00,,,0.00,,2013-02-26 02:41:00,
2013-02-25 20:52:00,21.0,19.0,-100.00,NW,315,0.0,4.0,92,0.00,,,0.00,,2013-02-26 02:52:00,
2013-02-25 21:01:00,21.0,19.0,-100.00,NE,40,1.0,3.0,92,0.00,,,0.00,,2013-02-26 03:01:00,
2013-02-25 21:11:00,21.0,19.0,-100.00,SSE,155,3.0,5.0,92,0.00,,,0.00,,2013-02-26 03:11:00,
2013-02-25 21:21:00,21.0,19.0,-100.00,SSW,195,1.0,4.0,92,0.00,,,0.00,,2013-02-26 03:21:00,
2013-02-25 21:32:00,21.0,19.0,-100.00,ENE,70,1.0,2.0,93,0.00,,,0.00,,2013-02-26 03:32:00,
2013-02-25 21:41:00,20.0,19.0,-100.00,SE,125,2.0,6.0,93,0.00,,,0.00,,2013-02-26 03:41:00,
2013-02-25 21:52:00,20.0,19.0,-100.00,SSE,160,3.0,6.0,93,0.00,,,0.00,,2013-02-26 03:52:00,
2013-02-25 22:01:00,20.0,19.0,-100.00,East,100,4.0,7.0,93,0.00,,,0.00,,2013-02-26 04:01:00,
2013-02-25 22:11:00,20.0,19.0,-100.00,SE,140,1.0,6.0,93,0.00,,,0.00,,2013-02-26 04:11:00,
2013-02-25 22:21:00,20.0,19.0,-100.00,SE,140,4.0,6.0,93,0.00,,,0.00,,2013-02-26 04:21:00,
2013-02-25 22:32:00,20.0,19.0,-100.00,East,95,3.0,6.0,93,0.00,,,0.00,,2013-02-26 04:32:00,
2013-02-25 22:42:00,20.0,18.0,-100.00,SE,125,1.0,5.0,93,0.00,,,0.00,,2013-02-26 04:42:00,
2013-02-25 22:51:00,20.0,19.0,-100.00,South,180,5.0,6.0,93,0.00,,,0.00,,2013-02-26 04:51:00,
2013-02-25 23:01:00,20.0,18.0,-100.00,SSE,165,3.0,8.0,93,0.00,,,0.00,,2013-02-26 05:01:00,
2013-02-25 23:11:00,20.0,18.0,-100.00,South,175,4.0,6.0,93,0.00,,,0.00,,2013-02-26 05:11:00,
2013-02-25 23:21:00,20.0,18.0,-100.00,SSE,155,4.0,6.0,93,0.00,,,0.00,,2013-02-26 05:21:00,
2013-02-25 23:31:00,20.0,18.0,-100.00,SE,135,3.0,6.0,93,0.00,,,0.00,,2013-02-26 05:31:00,
2013-02-25 23:42:00,20.0,18.0,-100.00,SE,145,3.0,4.0,93,0.00,,,0.00,,2013-02-26 05:42:00,
2013-02-25 23:52:00,20.0,18.0,-100.00,South,190,4.0,5.0,93,0.00,,,0.00,,2013-02-26 05:52:00,